User: anonymous   Login
Location: Unspecified
(0.0000°N, 0.0000°E)
Time: 15:53:15
(UTC+00:00)
Language:

GOSAT - Orbit

View from above orbital plane
View from above orbital plane
View from above satellite
View from above satellite

Ground track
Ground track

The orbit data is extracted from the following two-line orbital elements,

1 33492U 09002A   15216.11058164 -.00000124  00000-0 -13487-4 0  9999
2 33492 098.0782 324.3574 0001154 084.8108 275.3222 14.67543433349644
Epoch (UTC): 04 August 2015 02:39:14
Eccentricity: 0.0001154
inclination: 98.0782°
perigee height: 668 km
apogee height: 670 km
right ascension of ascending node: 324.3574°
argument of perigee: 84.8108°
revolutions per day: 14.67543433
mean anomaly at epoch: 275.3222°
orbit number at epoch: 34964

The dashed part of the orbit path shows where the satellite is in the earth's shadow,  

DLR